GFSNW_700_spd_021.txt.gz
Wind_Speed
14 17 17 16 17 20 22 20 9 21 23 16 13 9 8 14 18 17 12 8 8 8 8 6 4 6 5 4 2 1 4 1 2 2 5 4 3 4 4 4 5 6 6 12
14 15 19 18 17 18 21 11 12 22 25 13 18 15 14 15 16 12 9 11 9 9 9 4 7 6 5 3 1 1 1 2 4 3 0 3 3 5 6 6 7 13 11 9
15 14 17 20 19 18 19 10 11 20 24 14 14 15 15 18 18 15 13 11 10 10 7 5 8 6 5 4 3 2 2 2 2 7 10 12 12 13 13 14 15 15 18 21
16 15 15 18 19 19 17 12 11 18 20 15 13 13 14 14 16 15 12 11 8 10 7 8 7 6 5 6 5 4 2 2 5 9 13 14 15 16 16 18 21 21 24 20
19 16 15 16 18 18 19 13 13 18 14 16 15 15 13 14 13 11 13 9 12 9 7 5 8 6 4 4 5 3 6 4 11 15 9 12 17 20 20 18 13 15 17 21
20 19 17 17 17 16 17 16 15 17 15 18 15 15 14 14 13 14 9 12 11 13 9 10 9 10 9 7 4 6 7 6 8 7 15 23 8 3 2 7 10 12 16 16
21 19 18 18 17 16 14 15 14 16 17 19 14 15 13 14 12 12 14 11 12 11 9 9 9 9 8 9 11 11 10 8 7 8 10 3 4 10 16 13 11 10 14 16
21 20 19 18 16 15 15 15 14 15 15 20 18 15 16 16 14 11 14 12 10 9 9 8 6 6 7 10 12 10 9 8 5 3 7 18 9 1 4 12 14 15 12 9
22 21 19 18 17 16 15 15 16 16 14 18 18 17 16 17 17 14 13 13 11 10 9 7 5 4 4 3 4 8 9 9 7 7 4 4 6 9 12 10 19 7 10 20
22 20 19 19 18 17 15 14 14 16 17 16 18 17 18 15 14 12 15 13 13 12 11 10 8 6 7 4 5 8 9 10 12 11 9 10 13 15 17 10 11 21 30 34
24 21 19 19 19 18 17 15 14 14 15 14 19 19 17 16 16 15 16 15 16 15 13 10 10 9 8 8 7 10 8 7 8 8 7 8 4 11 15 21 26 23 32 39
26 23 21 20 19 18 17 16 15 15 15 11 15 15 16 17 19 16 16 16 11 12 11 13 9 9 10 11 7 8 10 13 10 9 10 15 25 23 25 34 31 35 38 37
28 26 23 21 20 19 18 17 16 16 15 15 15 17 17 17 17 18 19 19 20 18 19 16 17 16 15 15 17 15 19 16 24 21 21 20 25 24 31 36 30 35 35 33
30 28 26 24 22 20 19 18 17 17 16 18 16 16 20 19 19 19 18 20 19 21 22 23 22 21 17 19 20 20 22 17 23 24 26 27 30 23 28 35 34 28 33 32
29 29 28 27 25 23 22 21 20 19 19 11 17 22 21 20 19 18 18 20 23 23 23 25 25 25 27 31 31 34 27 21 23 29 26 34 32 39 33 30 30 30 26 27
29 28 27 27 26 25 23 23 23 21 21 22 22 22 20 17 18 17 22 25 27 25 24 27 28 31 27 23 30 33 25 16 19 28 33 30 35 29 27 27 25 25 27 28
30 29 28 28 27 26 26 26 24 23 23 23 23 25 28 26 25 24 25 26 27 26 28 31 30 30 26 34 39 34 27 28 32 31 27 29 20 24 25 24 25 26 27 24
30 29 29 29 28 29 28 28 26 24 22 23 18 16 19 21 23 24 27 29 29 31 32 34 33 29 29 35 40 29 30 28 27 25 23 22 24 24 21 23 23 27 31 36
32 29 28 29 31 33 29 27 26 27 27 24 29 30 26 24 22 20 20 23 26 28 29 30 31 32 27 26 27 27 27 27 26 25 25 25 19 19 21 23 29 34 37 40
34 34 33 36 37 33 27 27 27 30 32 35 39 36 30 24 21 21 21 22 19 18 23 22 27 37 35 31 31 29 28 26 24 24 20 16 17 20 24 30 34 37 37 38
35 36 38 43 40 33 29 27 24 28 34 38 44 43 38 31 27 25 20 20 13 13 19 18 15 28 24 19 22 20 19 20 20 17 16 17 22 25 31 34 35 35 37 36
39 40 41 32 27 20 22 19 21 18 27 32 24 29 28 33 34 32 30 25 11 10 13 10 9 16 15 13 14 14 16 18 18 16 18 22 24 29 33 34 35 36 34 32
33 41 37 28 17 14 13 17 17 25 24 21 25 26 23 26 30 26 15 11 10 9 8 8 7 17 15 13 13 15 17 18 15 18 22 25 28 32 33 34 33 33 33 31
20 18 15 15 7 10 12 15 21 25 26 24 18 23 27 26 23 12 8 10 7 6 6 8 13 12 14 14 13 12 15 16 18 22 26 28 32 32 32 32 32 33 32 30
11 8 6 7 8 9 11 14 14 16 16 17 21 26 17 13 8 7 7 5 5 5 4 9 9 9 9 9 12 15 16 18 23 27 31 32 31 33 33 33 33 32 32 31
6 4 5 12 8 8 11 11 10 12 12 10 8 6 4 6 5 5 7 4 3 8 15 12 10 10 11 12 15 16 21 26 30 33 32 32 33 34 34 33 31 31 30 31
5 8 6 10 9 10 5 7 9 9 8 8 4 2 5 3 4 5 6 16 20 16 13 15 14 13 15 17 20 25 29 33 32 30 32 35 35 35 33 31 30 31 30 31

GFSNW_700_spd_024.txt.gz
Wind_Speed
16 18 16 17 21 22 21 19 9 11 21 20 19 9 9 8 9 16 14 7 7 8 7 6 5 8 6 5 6 3 3 4 2 3 3 3 3 3 4 2 5 3 4 12
16 18 17 17 21 22 22 18 7 11 21 13 18 12 8 8 9 9 6 6 8 8 8 5 8 8 7 6 5 7 6 2 2 7 0 4 5 3 5 5 8 12 8 8
16 18 19 18 21 23 23 9 7 18 26 9 17 10 9 12 15 15 8 7 7 9 8 5 8 6 7 6 4 4 3 2 1 1 5 9 10 11 12 14 15 15 18 19
16 17 20 20 21 26 21 9 7 18 27 12 11 13 9 10 16 10 9 6 6 8 7 6 7 7 5 5 4 4 3 2 3 6 9 9 11 14 14 16 18 20 21 21
17 16 18 21 21 22 19 8 5 15 6 17 11 14 12 12 9 8 11 7 9 9 7 5 8 6 4 2 4 3 4 4 9 12 3 9 19 20 14 13 16 16 13 15
18 17 16 18 19 19 16 15 12 14 13 15 15 15 10 13 14 13 9 9 13 13 14 15 17 14 12 8 2 3 6 5 8 5 12 21 4 2 5 8 8 10 12 14
19 18 17 17 17 17 17 16 12 12 12 13 14 10 12 13 11 9 9 13 17 20 12 10 11 11 9 7 9 10 9 8 7 8 10 2 1 16 14 14 8 10 11 12
20 19 18 17 16 15 13 13 14 13 14 13 13 12 12 18 16 15 18 17 15 11 12 10 7 7 7 8 9 8 7 7 4 4 4 15 6 6 6 10 17 10 13 13
20 18 17 17 15 14 13 13 13 11 13 17 12 12 19 17 19 18 13 15 13 12 12 10 7 5 4 4 3 6 7 8 8 8 3 4 2 8 14 17 15 13 16 19
21 19 18 16 15 14 13 13 13 15 13 14 16 17 17 13 13 12 14 14 14 14 13 12 9 7 8 6 8 5 6 9 13 9 7 9 10 11 12 6 8 20 24 30
21 19 18 17 16 15 14 13 13 14 15 12 18 18 18 18 13 15 14 15 17 16 14 11 11 10 11 11 7 8 6 5 6 6 7 9 1 8 12 13 23 28 33 35
22 20 18 17 17 16 15 15 14 13 14 9 14 18 17 19 20 15 16 13 12 11 10 12 9 11 10 12 6 6 9 12 9 11 9 8 16 13 23 27 30 33 32 37
24 21 20 18 17 17 17 15 15 15 14 14 14 17 18 18 18 18 18 17 15 16 19 16 14 14 13 16 16 14 16 14 20 21 24 18 24 32 30 35 34 32 33 33
27 24 22 20 19 19 18 17 17 17 15 17 16 15 17 17 19 19 19 19 19 21 20 20 21 23 19 22 21 17 19 19 22 24 24 23 29 31 28 35 30 38 28 24
28 26 25 23 22 21 20 19 19 18 19 10 17 21 18 18 19 20 20 21 21 22 23 24 24 25 25 30 29 32 27 30 23 25 24 27 32 30 35 31 35 28 22 22
28 27 27 25 24 23 22 22 22 20 20 21 21 19 17 18 21 23 22 22 23 25 26 25 25 27 24 21 29 31 29 26 20 24 31 30 31 31 29 26 23 22 21 22
26 25 26 25 25 25 25 24 22 22 21 21 22 24 25 23 22 24 25 24 24 24 26 29 27 26 28 33 38 33 31 30 22 30 26 28 25 29 24 24 20 20 21 25
26 25 25 25 24 25 25 24 22 21 21 22 18 16 17 20 24 25 28 29 28 31 31 34 31 29 30 31 39 34 31 23 30 25 25 25 25 23 24 19 20 22 27 32
28 26 26 26 28 27 24 25 24 27 27 23 29 30 23 25 25 23 22 24 27 29 33 34 31 35 36 33 31 31 30 27 25 24 23 23 21 20 18 20 22 27 32 34
28 26 27 31 30 25 24 24 26 30 31 33 37 34 30 26 22 19 19 21 20 20 26 23 30 41 40 34 33 31 31 30 26 21 21 22 19 17 19 22 27 31 33 34
32 31 34 33 27 26 27 25 21 23 32 37 41 40 37 34 30 24 19 16 9 14 22 19 22 31 31 24 23 22 25 25 21 20 21 17 17 18 22 27 31 34 34 35
28 33 34 31 30 18 18 17 20 25 24 32 27 26 30 34 32 27 23 25 14 14 20 11 15 22 17 10 12 13 16 18 19 17 16 16 18 24 29 31 33 34 35 34
21 29 35 25 16 17 10 16 19 20 26 18 24 24 23 24 21 17 14 12 14 16 10 12 12 13 11 12 9 11 15 15 14 14 15 19 23 28 31 34 33 34 34 34
16 11 10 12 7 10 13 17 16 20 18 19 16 14 15 24 18 18 9 11 8 7 5 5 7 10 8 8 10 12 12 11 13 17 20 25 30 32 34 33 34 35 34 34
9 6 6 9 10 9 12 17 18 16 16 15 14 21 25 20 16 10 9 5 5 6 4 6 1 7 9 10 7 9 17 20 20 22 28 31 33 33 33 33 34 35 34 32
5 5 3 4 5 6 7 9 9 10 13 15 16 13 5 5 4 5 5 3 3 4 5 12 10 5 6 9 12 16 19 22 25 30 32 32 32 33 35 34 33 33 32 30
4 5 5 6 5 5 7 10 10 10 8 7 4 2 2 2 1 3 2 3 10 15 15 14 14 14 13 15 17 18 23 27 29 29 29 31 32 33 35 35 33 32 31 30

GFSNW_700_spd_027.txt.gz
Wind_Speed
20 22 24 25 26 26 24 21 17 18 20 22 23 18 4 8 8 14 13 7 10 7 12 5 8 9 6 8 10 6 8 9 8 5 4 4 3 2 1 2 2 2 1 7
21 22 22 24 25 26 24 20 15 13 21 20 22 11 8 7 7 14 12 14 11 7 12 6 8 12 8 11 8 9 11 7 7 3 1 2 4 1 6 8 10 9 3 5
21 22 21 23 25 26 24 19 14 12 19 16 21 10 11 13 12 12 10 9 13 12 10 8 10 10 11 8 7 8 8 9 5 6 2 5 7 8 8 11 8 13 16 17
20 22 20 23 27 29 26 13 12 13 25 17 17 13 7 14 16 15 14 9 9 13 8 6 9 8 9 7 8 8 7 9 8 8 7 9 9 11 12 14 15 15 17 9
20 22 21 24 28 31 21 13 14 12 13 19 17 16 13 12 7 10 10 6 9 11 12 12 10 8 3 5 7 9 8 6 6 5 6 8 14 13 3 2 4 9 7 8
20 21 23 24 30 28 18 11 12 17 12 25 16 13 14 14 14 8 11 11 15 15 14 16 15 14 11 9 7 9 6 4 4 3 7 12 3 4 5 8 9 9 10 10
20 21 22 24 25 25 22 17 14 18 17 20 17 15 16 11 15 12 13 12 19 18 14 13 13 13 11 11 10 10 8 7 5 5 7 1 6 9 13 14 9 12 11 17
20 19 23 22 21 21 20 14 15 12 12 16 17 13 13 14 16 15 18 20 18 18 17 14 12 12 11 12 13 12 12 9 4 4 4 13 8 6 11 8 11 16 19 22
20 19 16 18 20 17 14 13 12 11 11 16 17 16 16 19 19 18 20 18 16 16 16 14 8 6 5 6 5 11 8 7 8 7 4 6 9 5 10 14 15 18 17 19
20 18 17 15 15 14 13 12 12 12 11 17 19 16 19 20 21 18 18 16 15 14 14 13 11 10 10 7 7 8 11 10 14 13 8 9 11 17 17 11 14 14 18 27
19 18 16 15 14 14 13 12 11 11 12 11 17 19 19 17 14 16 15 15 17 16 15 13 13 11 13 13 13 10 9 6 8 10 8 9 8 12 17 19 21 22 27 32
19 17 16 16 15 15 14 12 11 11 11 8 14 19 17 19 17 14 14 16 14 13 11 14 11 12 11 16 11 14 12 14 10 12 10 21 23 21 25 26 24 28 29 33
20 18 16 15 15 15 15 14 12 11 11 12 13 16 17 18 21 19 18 16 14 17 16 15 14 15 15 16 18 17 14 17 19 17 19 21 24 30 32 31 35 29 32 31
22 19 17 16 15 14 14 15 15 14 13 14 12 14 16 17 18 18 18 18 18 18 18 18 19 20 17 22 22 23 21 23 26 28 20 24 28 29 33 35 32 34 36 33
24 22 20 18 16 15 16 16 16 16 16 7 16 18 16 18 19 19 20 20 20 20 22 23 23 23 24 29 30 31 25 27 30 37 28 26 28 30 33 33 32 35 29 22
25 23 22 21 19 19 18 17 18 18 18 19 19 15 15 19 21 21 21 21 22 23 24 25 27 26 25 23 31 32 26 23 26 29 30 29 28 27 29 31 31 27 22 21
26 25 24 23 22 21 21 20 20 20 20 20 19 20 21 19 20 21 22 21 23 24 27 29 27 26 27 33 39 34 30 28 30 32 30 28 24 27 28 24 23 23 20 20
25 25 24 24 24 24 22 21 21 19 18 20 16 12 13 15 18 21 22 25 25 29 31 33 32 31 31 35 39 35 29 23 26 29 28 26 28 25 23 22 20 19 19 22
24 23 23 22 22 21 19 20 21 22 23 22 25 24 20 21 22 21 21 22 25 28 31 32 31 33 33 36 32 32 29 28 25 21 24 27 24 22 20 19 19 19 22 28
23 24 24 24 21 20 20 21 23 26 28 31 31 28 26 23 22 20 19 20 19 20 24 22 28 39 36 30 28 30 30 25 23 25 25 24 20 18 18 17 18 23 28 31
26 26 26 24 22 21 20 18 16 18 23 30 34 33 32 31 27 25 20 15 11 16 19 18 21 34 30 25 21 23 28 28 25 26 20 16 18 17 15 17 23 28 32 34
24 27 25 23 23 17 14 14 16 17 17 21 20 19 21 28 29 25 20 23 13 11 13 10 13 19 18 14 14 14 16 21 20 18 17 15 15 15 19 24 29 33 35 33
20 21 22 13 13 14 14 17 15 14 20 16 18 17 19 18 18 15 14 12 13 15 9 11 12 13 14 14 11 10 11 13 13 10 11 14 18 21 25 30 33 34 33 34
14 15 11 11 7 10 14 14 17 20 16 17 21 21 11 18 14 14 8 11 8 7 5 4 8 12 8 3 2 3 6 6 6 12 19 22 22 26 31 33 32 33 34 34
12 6 6 10 10 10 10 14 14 14 14 15 15 16 22 15 15 9 9 5 3 4 2 8 6 4 4 4 4 2 7 13 17 20 22 24 29 32 30 30 31 31 33 33
6 6 3 0 2 5 8 9 10 9 9 10 12 15 7 9 5 5 4 5 4 2 2 7 9 2 2 6 11 13 14 17 20 23 26 29 28 29 29 28 29 31 33 32
4 5 6 5 4 4 5 5 5 6 9 11 8 6 6 4 4 5 6 3 4 7 10 12 13 13 11 11 12 15 20 22 25 27 26 27 28 27 28 30 29 30 30 30

GFSNW_700_spd_030.txt.gz
Wind_Speed
27 29 31 31 31 30 27 24 22 24 22 23 24 26 7 6 11 16 14 12 7 10 16 14 15 12 7 9 11 11 12 9 10 7 6 3 3 5 2 2 3 2 1 3
27 29 32 32 32 30 28 24 22 22 23 24 25 21 8 9 10 17 14 12 10 15 16 10 7 9 8 10 9 10 14 10 10 5 6 6 4 5 2 5 8 9 4 4
27 29 30 32 33 31 28 26 20 21 23 24 24 15 10 11 8 14 17 14 12 13 12 11 9 10 9 11 10 11 13 14 8 11 5 7 7 8 9 9 8 12 18 15
27 29 29 31 33 32 30 29 21 19 25 26 24 18 11 12 12 13 12 16 15 14 13 12 12 10 11 12 11 12 11 11 10 8 9 11 12 11 11 14 15 12 15 15
28 28 28 32 34 35 30 20 19 16 11 21 22 21 14 8 16 15 15 11 12 14 15 15 12 9 11 10 12 14 13 9 12 11 13 13 11 12 13 6 7 9 8 11
27 27 28 34 36 38 24 19 18 18 18 24 21 26 16 11 9 13 12 12 13 13 11 11 8 8 6 6 8 11 11 10 8 6 10 10 13 12 12 9 12 14 17 19
26 26 27 33 37 35 17 20 17 22 27 25 21 19 18 13 18 12 11 13 14 15 12 11 9 10 10 11 10 10 10 9 7 5 6 1 7 10 11 14 19 20 20 19
26 27 26 31 34 32 22 19 18 21 21 27 19 19 19 13 18 16 12 13 14 15 13 12 10 12 14 16 17 16 15 14 7 5 7 10 12 16 16 13 15 18 19 22
27 27 27 28 32 26 21 16 15 15 19 22 22 18 19 17 16 15 15 18 18 17 16 16 12 7 8 6 6 14 17 15 14 9 4 6 9 11 14 16 22 19 16 18
21 26 28 28 27 24 21 19 16 15 16 21 23 20 18 16 18 16 16 18 17 16 15 17 16 13 11 8 8 10 14 15 18 18 10 8 14 13 14 10 14 11 15 16
23 21 20 23 23 20 19 17 15 15 15 17 23 21 21 19 19 17 17 18 19 18 17 15 15 12 15 16 16 13 11 10 12 12 10 10 10 8 16 19 21 21 24 23
23 22 21 20 19 18 16 15 14 14 15 14 19 20 18 18 17 16 16 16 13 12 11 14 12 13 13 17 14 18 16 21 16 15 10 17 22 23 23 22 22 29 30 30
22 21 20 19 18 17 15 14 14 14 12 12 16 19 19 17 15 14 14 14 14 14 15 17 14 14 14 17 18 20 20 20 23 26 27 26 25 25 26 25 29 28 29 35
21 20 19 17 16 16 16 15 15 14 13 13 14 17 19 19 19 19 19 18 16 15 16 17 18 19 17 21 21 20 20 21 27 30 31 30 29 28 30 28 30 30 35 31
22 20 18 17 16 14 14 14 15 15 16 9 16 15 17 18 19 19 19 18 18 19 20 21 21 22 24 27 28 30 25 27 30 34 30 32 34 29 27 27 29 34 31 37
22 20 18 17 15 14 13 13 14 14 15 16 13 12 17 19 18 17 19 20 21 22 22 24 26 25 26 22 31 31 26 25 25 28 27 27 28 28 27 28 30 30 34 30
22 21 19 18 17 16 16 15 14 14 15 16 15 16 18 16 16 16 18 20 22 24 26 28 28 29 30 35 38 33 30 29 30 29 29 30 29 27 27 31 32 26 25 21
22 22 21 20 19 18 18 17 17 17 16 17 11 10 14 14 15 16 17 20 23 26 29 30 29 30 31 37 35 32 28 26 27 26 27 26 28 28 32 25 22 22 18 18
26 24 22 21 21 19 19 19 20 20 20 19 19 20 18 18 18 18 19 20 24 28 29 30 30 32 34 33 33 31 28 27 26 26 24 26 27 33 25 27 18 14 16 21
24 23 22 20 19 18 17 18 19 22 24 25 24 22 20 19 19 19 19 21 20 20 22 19 26 36 34 30 28 29 27 25 25 23 26 27 34 26 18 12 12 16 20 24
24 23 22 19 17 17 18 16 13 14 17 22 27 26 26 25 25 23 20 15 12 17 18 18 20 28 29 26 23 21 22 22 21 24 26 28 29 13 11 13 15 19 25 30
25 23 22 21 18 16 12 13 13 13 14 16 16 17 18 24 25 23 23 24 12 10 11 10 10 22 17 17 17 17 20 20 22 24 21 10 8 10 12 15 20 26 31 34
25 23 22 14 14 15 11 15 11 13 16 16 14 13 14 17 15 12 11 10 12 14 8 7 11 10 10 11 10 10 12 16 12 12 8 8 11 16 22 25 28 32 32 31
20 15 13 11 7 11 13 17 20 20 19 15 14 11 7 12 11 12 6 10 8 7 6 5 6 9 11 7 2 1 1 2 4 7 12 17 20 23 26 29 32 30 29 28
12 8 6 10 9 8 6 10 12 14 14 12 11 14 19 14 12 9 9 5 4 5 3 7 9 4 2 2 1 1 5 9 12 15 19 23 25 27 30 28 28 28 27 28
9 9 6 4 6 6 7 8 8 8 9 10 11 12 7 12 7 7 6 4 6 6 5 4 6 2 2 4 8 10 12 14 18 21 23 26 29 28 27 26 26 28 30 32
6 8 10 7 7 6 6 6 5 5 4 6 7 6 8 4 4 6 7 6 7 5 4 4 7 9 9 10 12 14 16 18 21 26 27 26 27 26 26 28 30 32 32 34

GFSNW_700_spd_036.txt.gz
Wind_Speed
43 41 40 38 36 37 39 39 37 35 31 28 28 28 21 7 8 21 21 16 12 12 19 15 16 13 12 10 10 13 14 9 9 13 10 10 9 7 7 3 4 5 2 8
44 43 42 40 39 38 40 40 37 35 32 32 29 31 20 6 9 16 21 18 14 10 15 17 17 14 12 8 9 11 14 7 8 5 9 11 11 10 10 8 6 9 3 5
45 44 43 42 40 38 39 36 31 36 33 33 32 34 25 8 9 13 15 14 14 10 14 16 12 15 11 10 10 12 13 12 11 14 5 8 12 15 14 13 8 8 19 22
45 45 45 43 42 40 39 37 28 39 37 35 32 33 20 13 11 11 10 10 12 12 14 14 10 12 12 11 11 12 12 11 15 14 11 10 11 13 15 18 19 18 23 23
44 45 45 44 43 42 39 35 29 34 16 33 31 32 28 21 16 12 11 12 13 14 12 11 10 10 11 10 12 13 13 9 12 14 15 14 17 18 20 23 25 26 25 26
43 44 45 45 45 42 38 33 25 29 33 33 31 33 24 20 17 13 9 8 11 15 13 11 10 9 8 8 11 11 12 12 10 8 14 17 19 24 25 27 28 27 25 19
40 42 45 45 43 40 36 31 23 25 28 25 32 30 27 20 17 13 13 11 9 10 8 7 6 6 6 6 6 7 8 11 11 6 7 2 16 19 17 19 20 25 24 21
37 40 43 44 41 38 35 31 23 23 22 22 29 29 30 23 16 13 9 11 11 8 9 9 7 8 8 11 11 11 11 11 8 6 9 17 18 19 19 19 21 20 22 21
35 38 41 41 40 37 35 28 27 24 20 25 27 29 29 27 20 17 14 11 10 11 12 13 9 5 5 5 5 10 15 16 16 11 5 6 10 12 11 18 27 20 16 12
35 36 36 37 39 37 32 25 22 19 23 24 26 22 24 27 22 19 18 17 14 13 14 16 12 11 10 7 7 9 12 13 17 20 13 10 16 18 18 12 14 10 13 20
33 32 33 35 38 38 34 22 20 17 17 28 28 23 21 21 20 19 18 18 17 14 18 17 15 11 13 14 18 17 14 9 11 10 9 11 12 15 16 15 14 16 26 25
31 30 33 36 43 42 38 34 23 17 19 25 24 21 21 17 18 19 16 15 11 11 12 16 15 15 16 16 16 18 15 19 14 13 9 16 22 24 20 20 26 28 30 27
31 31 33 34 32 37 14 14 16 17 18 19 23 23 20 20 19 17 17 16 15 16 16 16 14 15 15 17 16 18 18 18 23 24 24 24 24 25 26 29 29 31 29 27
32 32 32 29 26 25 19 19 18 18 18 16 23 21 22 20 19 18 17 17 16 17 17 18 19 20 17 18 19 17 17 22 26 28 27 27 25 26 27 28 29 28 28 31
31 32 31 29 28 26 23 19 18 18 18 17 18 20 20 20 20 19 19 17 17 18 19 20 20 20 20 23 23 24 23 24 26 28 23 26 26 27 27 29 29 29 29 27
27 26 26 27 24 23 22 20 19 19 19 9 16 18 20 20 20 19 19 19 19 20 19 19 21 21 22 17 22 24 24 25 28 29 28 29 29 28 28 27 26 25 24 25
25 25 24 23 22 22 21 20 19 17 16 15 10 9 16 17 17 17 18 18 19 20 21 22 24 24 25 28 29 28 28 28 27 26 26 26 26 28 27 26 25 24 27 31
23 22 22 21 20 18 17 15 13 15 15 14 9 8 11 13 15 17 17 18 19 22 24 25 25 27 27 30 30 30 29 28 27 28 29 28 28 28 27 27 27 29 30 29
20 18 17 17 16 15 14 14 13 13 14 10 10 12 10 10 13 14 17 19 22 23 25 24 25 27 22 27 31 31 31 31 31 30 30 27 26 24 24 24 27 29 29 19
19 17 16 14 12 12 13 13 13 14 16 16 14 13 14 13 14 16 18 18 15 14 17 17 23 27 27 28 30 30 28 25 25 25 25 23 22 21 25 24 27 20 14 7
26 23 19 16 12 13 13 11 8 10 9 13 17 19 20 19 18 17 13 11 9 9 14 16 14 20 21 22 22 21 22 21 20 21 19 17 17 21 21 16 13 8 14 18
19 19 17 16 14 11 9 8 8 8 9 10 12 16 20 23 21 16 12 14 9 8 10 9 8 19 17 17 17 22 21 18 16 13 14 15 13 11 9 9 16 20 23 25
17 17 15 8 10 12 8 11 9 11 13 12 13 13 15 16 18 12 9 8 9 10 6 6 13 14 15 15 15 14 11 9 10 8 7 8 9 14 19 22 23 24 25 26
17 13 12 10 8 8 16 17 16 16 12 9 9 11 8 12 10 11 6 8 7 5 6 8 10 9 10 11 13 14 11 10 10 11 14 18 21 20 21 22 26 29 29 29
16 9 7 11 12 10 8 9 13 15 13 12 11 10 10 8 6 6 7 5 6 6 7 9 8 10 11 8 5 6 5 6 9 11 14 15 16 18 22 26 27 28 29 29
11 10 6 7 10 11 9 7 7 7 8 8 11 10 6 11 7 8 9 5 6 7 10 9 10 14 11 11 8 5 8 11 11 11 13 16 20 22 23 24 26 28 30 32
5 7 9 8 8 10 10 11 11 11 12 13 9 7 8 6 6 7 7 7 9 8 7 8 9 9 9 11 11 10 9 11 13 16 19 20 21 23 24 26 29 33 35 39

GFSNW_700_spd_039.txt.gz
Wind_Speed
56 52 46 43 41 40 40 40 38 39 37 33 30 29 25 14 9 17 19 19 14 17 18 12 14 13 12 11 15 13 14 10 9 14 10 10 10 10 9 4 4 5 2 7
52 51 49 47 45 43 43 44 36 37 37 36 31 30 25 15 12 18 22 20 13 13 16 14 14 14 11 10 9 11 15 10 8 4 10 14 15 16 14 13 9 9 4 5
54 52 51 49 46 44 42 43 30 38 36 33 33 30 27 16 12 16 23 20 15 11 11 17 10 15 14 13 12 12 13 16 13 15 7 8 17 19 17 16 10 12 20 21
55 54 53 49 47 45 46 45 32 43 42 37 34 29 28 16 14 14 18 18 18 16 10 17 15 16 17 14 14 14 15 15 18 17 14 12 12 13 16 20 22 20 24 24
57 56 53 52 48 46 47 40 33 38 17 35 33 31 28 23 13 15 16 14 13 13 12 12 15 10 11 13 13 15 17 11 13 16 17 17 19 18 19 21 24 28 29 30
57 55 54 52 49 47 47 37 28 30 34 36 34 31 30 24 17 11 11 11 14 15 12 10 9 9 11 11 13 14 15 14 11 8 14 16 18 25 25 26 27 28 31 25
55 56 54 51 49 46 44 35 28 26 34 23 36 30 28 28 20 15 12 9 11 13 13 12 9 8 8 9 9 11 10 11 10 6 5 2 15 18 17 19 20 23 24 20
54 52 52 50 48 44 41 37 30 25 27 34 30 31 27 26 24 19 13 12 11 9 11 11 8 8 8 11 11 11 10 10 6 5 8 16 18 18 22 23 23 20 20 18
48 50 50 48 47 44 40 36 27 23 24 29 25 33 29 28 24 20 14 13 13 12 14 12 8 6 5 4 4 14 15 14 13 10 5 5 5 9 16 18 20 19 15 12
43 46 47 46 45 43 39 35 28 23 22 19 26 31 31 31 26 22 20 16 15 12 13 13 11 10 8 5 5 5 8 10 15 16 11 9 14 15 14 8 11 11 11 13
40 41 44 45 43 40 36 30 28 24 23 17 24 27 28 32 29 24 21 21 20 17 15 13 12 9 10 10 13 11 10 6 8 8 7 7 4 6 9 15 18 17 16 23
35 37 40 41 41 38 35 30 27 21 19 20 24 26 19 23 28 23 21 19 14 17 13 12 9 11 11 13 14 14 13 14 12 11 8 14 21 22 19 18 18 20 26 28
33 34 36 39 40 38 37 30 21 20 17 18 27 27 21 20 21 21 20 18 16 16 15 12 12 13 13 14 12 14 15 16 19 20 20 20 22 22 21 21 22 23 25 27
31 32 35 38 40 41 40 26 19 17 18 21 27 25 24 21 18 19 17 16 16 15 15 16 17 17 15 15 15 14 16 20 22 24 21 21 20 22 23 24 25 27 26 26
29 32 35 35 38 35 36 27 18 16 17 17 25 24 23 21 20 18 18 18 17 17 17 17 16 17 17 18 17 18 18 17 20 21 21 24 25 25 26 27 27 28 28 26
31 32 32 33 28 30 18 15 16 18 21 13 22 22 22 21 20 19 18 17 17 17 17 18 19 19 18 12 13 18 20 20 25 25 26 25 26 25 25 26 26 25 24 25
31 31 31 32 30 27 26 22 21 20 20 12 17 17 20 20 20 19 19 19 19 19 19 20 20 19 19 21 20 21 23 24 26 26 24 23 24 27 27 25 25 23 21 20
30 28 28 25 25 24 23 20 17 18 16 16 11 9 14 19 18 18 18 19 20 21 21 22 22 21 21 18 22 23 24 24 25 25 28 29 28 26 24 22 20 19 21 29
26 24 24 23 22 21 18 16 15 17 16 12 12 13 13 13 15 16 18 20 20 20 22 22 21 22 15 22 24 25 25 26 29 28 25 23 22 20 18 18 20 21 19 19
25 25 24 21 20 18 17 15 14 14 15 13 11 11 13 12 13 16 18 16 13 13 16 16 20 24 22 23 25 26 25 23 22 21 19 18 20 19 15 14 14 15 16 11
24 23 21 17 15 14 12 9 9 9 8 11 15 15 16 16 16 15 10 10 7 7 12 14 11 15 18 19 20 19 20 19 19 21 17 14 13 13 13 9 6 8 17 24
26 24 20 20 14 7 6 6 7 7 10 12 15 18 19 20 17 14 10 12 7 7 9 8 6 13 16 17 17 17 18 16 15 13 11 8 7 7 7 13 19 22 21 20
22 19 18 12 11 6 8 11 11 11 12 12 13 14 14 15 15 10 7 7 9 8 5 6 12 13 15 15 14 13 12 10 6 4 4 7 11 14 14 14 14 15 17 17
14 11 11 9 6 9 13 15 15 13 11 11 13 13 10 13 10 9 6 8 6 6 7 9 12 11 10 10 9 10 9 9 9 8 8 8 9 11 14 16 19 19 20 21
12 8 7 11 10 10 10 12 14 13 13 13 12 11 11 9 8 7 7 5 5 7 7 8 8 7 7 9 11 10 7 5 5 6 8 10 12 14 17 18 19 21 23 26
13 10 9 10 12 12 12 11 10 9 9 11 10 8 5 8 6 7 8 5 6 4 5 5 6 6 11 11 9 6 7 9 8 9 12 14 16 17 18 20 22 25 28 32
8 8 9 7 10 9 9 9 8 8 11 11 7 6 8 5 6 7 6 5 8 10 7 3 3 6 8 8 9 12 9 9 11 13 16 17 18 20 21 24 26 29 33 37

GFSNW_700_spd_042.txt.gz
Wind_Speed
58 59 57 53 48 45 44 41 37 48 47 37 33 27 24 20 15 17 19 18 15 17 17 15 14 17 16 16 15 12 13 8 7 9 12 11 13 10 11 6 5 5 2 6
62 66 56 52 52 52 46 44 32 47 47 38 31 24 25 24 14 19 22 22 18 19 20 13 14 14 17 13 13 13 15 10 7 4 9 13 13 16 16 16 11 8 4 5
66 58 56 56 55 51 46 40 35 48 48 34 29 27 26 23 17 20 24 21 18 17 19 19 11 15 16 14 13 12 13 17 13 17 8 6 10 20 21 16 9 10 17 16
65 51 65 57 56 52 51 42 34 50 51 46 31 29 25 23 18 20 24 23 19 17 16 18 19 15 16 16 15 14 14 12 19 20 17 15 14 13 18 22 20 14 17 17
61 63 62 59 57 54 53 42 39 39 35 44 33 33 25 25 20 20 26 20 22 19 17 13 13 17 17 17 16 17 17 13 16 17 19 20 20 19 19 20 21 24 24 27
54 75 65 63 59 60 58 38 33 43 28 45 36 37 27 27 20 20 21 19 21 19 17 14 12 15 13 14 16 16 18 17 13 7 14 15 17 24 26 27 26 27 24 21
60 63 60 61 61 57 55 37 32 35 38 40 41 31 31 26 22 17 18 18 17 17 17 14 12 11 13 13 14 13 13 16 11 6 4 3 13 16 15 17 18 21 22 23
64 66 65 61 59 55 50 34 30 30 37 24 40 33 28 26 26 22 15 12 12 13 16 14 11 11 10 11 11 11 13 12 7 5 7 12 16 17 16 17 16 18 20 18
60 61 60 58 55 52 46 32 32 27 31 41 22 37 31 28 28 23 19 13 13 13 17 15 9 7 7 7 6 16 15 14 12 8 4 4 5 8 11 15 11 7 7 11
59 56 56 55 54 52 47 32 30 26 29 27 34 28 36 30 29 27 22 18 16 16 19 18 10 9 10 6 6 6 10 13 16 16 10 7 12 13 10 2 5 15 15 14
54 55 55 55 52 50 45 36 31 29 25 22 27 33 34 34 30 28 26 21 21 20 18 15 11 9 12 11 11 7 7 6 7 7 7 5 1 5 6 12 18 16 15 18
50 53 53 53 50 47 40 31 30 27 24 19 23 29 27 33 29 28 23 24 18 20 18 14 9 10 10 13 7 10 10 13 9 7 4 9 16 14 16 19 21 20 20 23
46 49 51 51 49 44 36 28 26 27 22 20 21 28 27 27 32 29 26 22 21 19 21 15 12 10 10 11 12 12 12 12 14 14 11 13 19 20 21 22 22 23 25 26
46 49 48 46 43 39 36 32 22 24 24 23 26 26 27 20 24 29 28 22 20 16 17 17 16 15 13 14 12 11 13 15 16 17 17 18 19 20 23 25 26 27 28 28
42 43 44 42 41 38 34 32 25 29 21 19 30 29 25 22 21 21 20 18 18 18 18 17 17 17 16 15 14 16 17 19 17 18 18 20 22 25 26 26 26 25 27 27
38 39 41 42 39 37 34 25 27 17 10 19 30 28 27 24 20 20 20 20 19 20 19 18 17 16 15 10 13 16 18 19 18 20 21 24 26 24 24 25 27 28 27 25
36 38 39 39 35 26 27 27 17 16 12 13 22 25 26 25 25 24 21 20 19 19 18 18 18 18 17 17 16 19 21 22 23 24 23 22 21 25 28 27 26 24 23 20
35 36 37 39 34 32 22 25 19 17 15 14 12 13 23 23 23 22 21 20 19 19 20 20 19 18 18 16 21 20 21 24 24 23 23 25 27 25 23 21 19 19 19 20
35 35 33 33 32 30 23 22 17 19 16 14 12 13 13 22 22 20 20 20 21 21 20 21 19 19 14 20 20 21 22 22 23 24 22 20 20 18 18 18 14 14 14 13
35 32 32 33 28 25 19 21 23 21 19 15 14 17 15 14 19 20 18 16 15 13 17 18 22 23 23 23 24 24 22 19 17 17 18 18 16 12 12 11 10 9 8 7
34 29 29 24 23 25 21 13 15 11 12 18 16 16 17 16 15 16 13 10 7 7 13 14 10 16 19 21 21 18 15 15 14 14 11 9 8 7 6 6 6 8 11 11
29 25 26 28 24 11 7 13 13 10 12 13 19 19 18 18 17 14 12 12 7 7 10 9 6 19 18 16 15 13 11 10 8 6 6 6 6 7 8 8 9 8 9 10
28 28 25 18 11 8 10 13 12 12 10 14 16 17 17 16 15 11 8 8 8 7 7 8 15 14 13 12 11 7 5 5 5 5 6 7 8 8 7 7 9 10 11 12
24 16 13 8 7 10 9 15 14 16 17 16 15 15 12 14 12 9 6 9 7 6 7 10 12 9 8 7 8 7 7 8 8 8 7 7 8 9 10 11 12 13 16 19
12 8 7 13 11 13 14 15 14 14 14 13 13 13 12 10 8 7 8 6 6 8 8 5 4 5 7 10 11 12 11 9 8 8 9 11 13 13 15 15 17 19 21 24
8 6 8 12 13 13 12 12 15 15 15 15 15 11 6 10 7 8 8 5 6 3 4 3 4 6 9 13 12 11 10 10 11 12 12 13 15 16 17 18 20 22 25 29
8 9 10 9 12 12 12 12 12 11 11 13 9 8 8 6 6 7 7 6 5 5 4 3 5 7 9 10 10 11 11 12 12 13 14 16 16 18 19 21 23 26 30 34

GFSNW_700_spd_045.txt.gz
Wind_Speed
68 65 60 64 54 47 49 45 32 41 41 47 41 37 27 20 17 14 14 18 17 19 19 18 16 20 16 17 15 15 16 10 13 13 10 13 10 11 12 11 8 7 4 9
58 54 58 66 58 55 55 48 33 30 44 48 38 33 26 25 19 18 17 18 20 18 18 16 17 16 19 14 19 16 14 12 15 12 11 14 13 13 13 13 9 11 5 6
51 48 62 65 61 58 55 42 36 36 52 46 38 36 29 27 22 17 18 19 18 16 17 18 14 14 17 21 17 18 15 16 16 17 13 5 12 14 16 17 14 15 18 17
45 49 71 67 57 60 54 46 43 50 53 54 42 34 28 27 28 19 18 20 21 18 17 18 13 14 14 17 17 17 15 13 15 19 14 11 12 12 13 20 23 22 19 17
45 57 69 67 54 60 59 49 41 31 32 46 36 38 33 31 27 20 21 21 22 19 15 17 14 15 12 14 18 17 17 12 13 14 14 14 17 18 18 19 21 23 24 25
47 59 79 52 64 65 67 46 38 35 36 48 41 41 36 30 26 22 20 23 23 20 16 15 11 13 12 10 13 16 11 12 10 11 9 9 14 21 22 22 22 21 23 22
47 54 68 57 72 72 65 42 33 38 41 52 49 34 33 27 27 18 23 20 21 23 20 16 14 13 14 13 14 13 15 12 11 7 4 2 10 13 14 13 15 18 21 19
47 49 66 72 70 71 59 34 30 35 39 44 40 34 33 26 25 16 24 26 22 19 16 14 13 12 13 14 15 16 15 13 8 6 9 12 14 12 13 9 8 8 10 11
43 54 63 75 65 68 56 39 35 31 39 43 40 33 35 28 26 21 20 21 19 16 17 17 10 9 11 7 6 16 15 16 11 9 4 4 4 9 9 7 8 1 3 7
34 61 60 69 73 68 50 42 34 19 33 29 35 38 35 28 24 22 25 20 16 13 16 17 10 10 9 7 8 8 16 16 15 12 8 7 10 13 10 5 3 9 15 12
56 66 67 67 65 66 49 40 32 28 26 36 31 31 30 28 28 27 27 23 21 18 15 15 10 11 12 9 8 8 7 8 9 10 7 7 9 2 2 7 15 19 19 17
62 59 60 61 63 55 43 41 30 25 25 27 39 35 31 36 29 25 26 20 21 20 13 16 15 12 11 14 7 13 8 10 5 8 4 9 9 13 17 19 21 23 24 22
60 63 62 63 60 51 38 39 33 23 22 22 25 34 33 27 37 34 26 28 24 20 20 17 16 10 12 12 14 11 12 14 12 13 6 9 13 20 22 23 21 22 25 26
55 57 57 56 56 50 38 32 30 25 25 22 25 30 33 29 33 33 28 27 20 18 17 20 20 15 12 14 12 10 11 12 11 15 13 15 15 20 20 21 25 26 28 27
52 52 51 54 55 43 34 30 30 28 25 23 24 24 31 29 28 33 32 26 23 20 21 22 20 18 16 16 15 14 17 12 14 10 18 18 20 25 25 26 26 26 27 28
49 50 49 49 43 35 31 24 23 23 29 15 24 27 30 30 25 27 29 30 27 25 22 21 20 18 16 11 15 19 19 20 19 20 21 22 25 26 27 25 26 29 30 28
42 41 40 41 42 39 32 14 23 20 23 13 22 27 30 27 26 26 25 24 23 23 23 22 20 18 18 19 16 21 22 21 21 22 22 26 24 24 25 28 28 26 24 22
39 40 41 38 36 30 25 10 12 24 11 15 13 19 30 29 28 26 25 24 24 23 23 21 20 19 20 19 23 25 24 25 25 25 23 23 24 26 26 23 20 19 17 16
40 40 38 36 31 25 23 14 18 16 6 5 12 19 25 28 27 26 25 25 23 20 23 23 22 22 16 23 25 25 25 25 25 23 23 23 22 21 19 20 15 13 13 13
41 40 37 35 31 22 23 20 17 13 14 9 9 17 15 26 27 25 23 22 19 13 20 21 24 24 24 25 26 27 26 21 20 20 18 18 17 15 12 11 10 11 11 11
43 43 34 34 25 23 21 14 12 12 13 15 14 15 15 17 24 25 19 13 10 8 13 14 11 19 21 24 27 25 22 19 17 15 15 12 11 9 8 9 10 11 13 13
33 35 35 30 18 11 6 12 12 9 12 13 19 17 16 17 17 14 18 10 8 7 9 10 7 22 23 22 20 17 14 13 11 9 8 7 8 8 9 10 11 12 13 13
29 34 27 16 8 8 8 13 12 9 12 13 17 19 18 16 16 12 8 8 9 9 8 8 18 19 17 15 14 10 10 9 8 7 7 8 9 11 12 13 13 14 14 14
28 18 17 11 7 11 10 17 17 16 12 15 17 18 16 17 14 9 7 10 7 7 7 11 13 13 13 11 10 8 7 7 8 9 10 11 11 12 13 15 15 15 16 18
23 11 10 11 11 11 12 15 16 17 16 13 13 13 13 11 8 8 8 7 6 8 9 11 7 10 10 9 9 8 9 9 10 11 12 13 14 16 17 17 18 18 20 23
14 8 8 14 12 13 15 16 13 11 11 11 11 9 6 8 6 8 8 5 6 8 7 7 6 6 8 11 11 12 12 13 13 14 15 17 17 18 19 19 20 22 24 27
8 9 9 14 14 12 12 13 15 15 13 11 7 6 7 5 5 7 7 9 9 8 5 4 7 9 11 11 11 13 14 14 14 16 17 17 18 19 20 21 23 26 29 31

GFSNW_700_spd_048.txt.gz
Wind_Speed
68 67 65 62 57 51 45 44 46 43 42 43 49 49 32 27 19 17 18 18 20 17 19 18 20 18 18 17 15 9 14 10 9 12 7 7 8 10 9 11 9 6 4 10
58 67 68 66 60 57 51 49 41 30 40 49 48 40 30 31 26 21 18 18 18 15 19 20 19 13 14 13 11 12 12 10 12 14 11 9 15 14 14 13 9 11 6 4
55 51 64 67 64 62 54 51 41 36 44 50 43 39 33 32 30 23 19 18 17 16 20 16 16 16 18 14 14 18 17 11 14 13 15 7 8 10 14 15 12 15 21 19
56 54 54 65 62 68 55 55 45 53 49 55 35 34 31 34 31 27 20 22 22 18 18 17 17 17 15 17 20 21 18 15 16 18 18 16 12 13 10 14 17 20 22 19
51 55 52 57 62 73 54 59 45 46 25 47 43 41 42 36 32 29 26 20 21 22 18 19 18 14 16 13 15 17 18 14 14 14 12 14 15 17 19 20 20 20 21 22
51 53 53 56 71 77 63 62 54 33 50 25 54 51 44 39 32 29 27 21 19 20 19 18 17 17 16 8 13 19 13 14 8 8 11 11 14 20 19 20 20 19 21 20
52 50 47 57 77 74 65 63 52 30 32 41 55 45 34 37 31 29 23 22 25 23 21 18 15 11 11 12 10 10 13 12 11 7 6 1 13 8 11 13 12 12 13 13
47 42 45 58 79 68 63 61 55 23 38 45 38 44 42 33 29 33 31 28 25 24 24 18 13 14 13 12 11 15 11 12 11 7 10 11 16 9 8 6 5 4 6 8
44 41 46 58 79 66 55 67 55 16 38 44 46 43 38 39 32 28 30 28 23 25 22 17 11 9 11 9 7 15 15 14 13 9 4 5 3 9 8 7 6 3 1 4
45 47 49 58 75 69 66 55 37 13 36 37 44 47 42 39 33 37 30 33 31 27 24 18 11 11 10 11 11 9 13 17 17 13 7 6 8 13 13 5 5 11 9 14
46 50 52 56 73 72 75 46 29 29 27 27 48 47 35 37 30 36 33 29 27 24 20 16 11 11 13 10 9 11 8 10 12 13 7 8 12 11 5 11 10 14 21 19
41 42 42 66 63 77 76 46 22 20 19 45 47 45 44 39 33 28 23 21 23 17 16 13 12 12 15 18 11 12 9 10 6 8 3 9 8 11 12 14 21 21 23 21
47 36 50 67 68 76 57 29 28 7 15 31 34 34 36 35 29 29 25 23 19 20 16 13 13 11 15 14 16 10 11 13 13 12 8 8 10 15 22 20 20 20 22 23
39 47 58 63 76 49 38 32 24 17 17 25 36 32 30 36 32 27 25 26 22 19 14 16 15 14 13 14 10 12 12 12 9 11 10 12 17 23 23 20 20 22 26 25
51 57 69 74 63 63 38 37 30 22 17 19 32 37 36 33 29 33 29 26 23 20 17 19 19 16 15 13 13 14 15 12 15 13 18 21 23 23 22 24 25 26 26 25
55 62 74 67 61 37 22 12 20 17 18 18 25 32 35 35 33 28 31 28 22 25 22 22 22 18 17 13 16 17 18 18 19 24 23 25 26 25 26 26 26 25 27 27
61 61 60 58 51 31 16 29 27 22 16 12 20 21 29 34 32 29 29 34 33 28 25 24 22 21 19 19 18 18 19 21 22 22 23 23 28 26 25 25 26 28 26 25
44 47 53 54 38 33 17 28 29 16 17 18 11 15 27 31 33 29 31 32 31 29 28 27 24 22 21 20 21 23 23 25 24 24 25 26 24 25 24 26 26 25 22 19
45 43 49 51 31 34 12 12 5 7 17 17 9 19 25 30 31 30 26 27 27 24 26 24 23 23 17 20 24 26 26 28 26 23 22 23 23 23 23 21 21 17 15 14
37 42 41 40 33 10 12 12 16 12 12 4 5 19 24 33 32 30 27 24 22 15 21 20 25 26 26 25 27 27 26 27 23 22 22 21 20 18 18 16 13 11 12 11
37 43 30 23 25 20 18 10 10 10 4 8 9 14 11 29 32 30 23 16 14 9 14 17 15 24 25 27 29 29 29 26 23 20 18 15 14 13 11 10 11 11 12 14
33 34 24 27 16 7 6 10 7 7 9 8 14 19 19 20 23 16 19 10 10 7 10 12 9 21 20 22 24 24 21 19 16 14 12 11 9 9 10 10 12 13 14 15
30 28 26 15 8 7 7 10 11 10 13 12 18 18 18 17 18 11 10 9 9 8 8 7 14 15 18 18 18 18 15 13 12 10 9 8 9 10 10 11 12 13 15 16
28 18 13 5 6 6 8 15 12 10 11 14 16 20 17 14 16 8 7 8 8 7 6 10 13 14 15 16 16 13 11 11 10 9 9 10 10 10 11 12 15 16 17 18
15 10 9 13 10 12 10 14 15 14 12 15 17 18 13 13 7 8 7 8 6 8 9 12 10 11 14 15 12 10 10 10 10 10 10 11 11 12 14 16 18 19 20 21
8 5 9 12 10 10 11 12 12 14 15 14 13 11 7 7 5 7 7 4 5 9 8 9 9 9 9 9 9 12 13 12 11 11 11 13 14 16 18 19 20 22 22 24
8 7 7 10 11 11 12 12 12 12 13 13 6 6 5 6 5 6 7 8 10 9 7 6 6 5 8 10 12 12 12 13 13 14 14 16 18 19 20 22 21 24 26 28

GFSNW_700_spd_051.txt.gz
Wind_Speed
72 70 68 65 60 53 47 48 47 37 43 43 49 54 50 29 36 21 15 12 14 19 18 23 25 19 19 13 18 13 9 5 5 16 11 10 11 8 6 14 8 2 2 8
62 73 70 68 64 58 54 49 46 28 41 49 54 52 48 43 37 29 17 15 20 20 14 16 22 21 21 16 18 13 14 8 8 8 11 10 12 13 19 14 8 13 6 4
50 64 57 64 68 60 57 53 39 43 44 53 53 55 47 48 39 32 21 15 21 19 18 16 13 26 21 18 20 18 17 10 8 12 9 11 11 12 9 15 16 13 15 18
56 56 55 51 64 61 59 53 47 45 52 58 51 38 47 44 44 38 27 23 21 22 20 17 15 25 14 14 13 14 15 20 16 13 12 19 10 12 11 9 14 16 15 15
59 63 58 53 53 67 63 56 53 54 39 49 53 42 44 48 44 40 33 27 23 22 24 20 21 18 16 19 16 18 19 18 17 15 17 16 15 13 19 22 17 17 16 16
60 63 67 57 57 77 71 58 50 49 58 31 44 61 44 43 39 40 30 24 22 21 24 19 21 19 19 18 17 16 18 18 16 13 16 18 19 25 22 18 15 16 15 10
59 61 66 58 60 79 75 68 52 45 46 54 42 47 49 41 41 35 27 26 25 23 25 25 20 19 18 14 13 12 19 15 13 9 10 1 14 6 10 6 6 7 8 11
60 59 59 60 57 83 74 69 52 45 48 44 52 33 51 40 38 39 28 32 33 29 22 27 22 20 17 16 15 12 18 20 12 7 13 11 13 11 12 10 4 6 11 11
48 58 55 54 55 80 82 66 61 45 32 46 36 50 40 43 46 37 38 36 41 30 32 25 15 13 12 11 14 19 21 20 19 11 5 7 5 8 11 8 7 9 13 16
56 56 53 57 54 67 81 66 59 60 27 26 34 41 51 44 46 39 35 35 33 25 28 23 19 15 15 11 17 17 19 19 20 18 10 8 11 11 11 9 8 12 13 12
45 44 47 48 55 59 80 62 68 54 41 21 29 36 42 47 49 43 38 34 43 40 30 26 12 11 16 12 18 17 13 12 16 14 10 10 15 15 13 12 17 16 14 14
40 43 44 36 56 54 80 63 64 54 34 29 31 37 42 51 54 39 35 34 32 23 22 17 21 13 19 21 13 11 11 13 9 8 4 8 13 16 13 13 15 16 18 20
41 44 46 44 56 58 72 59 54 57 23 21 37 35 47 42 44 47 37 37 32 28 31 27 19 18 15 20 22 15 16 12 13 9 7 16 17 17 16 15 18 21 20 18
45 50 49 50 48 79 62 67 51 38 16 14 41 39 42 37 48 39 30 33 41 29 21 22 19 15 12 13 12 20 17 17 15 15 12 17 19 20 20 21 24 19 20 21
42 50 44 47 49 70 66 61 49 41 25 7 25 53 39 31 33 20 22 39 26 28 27 21 18 16 13 14 17 19 19 19 19 21 23 24 24 26 25 23 21 22 23 22
42 41 43 46 62 69 70 59 52 34 23 5 21 29 36 39 37 41 27 29 25 20 21 21 19 17 17 14 21 21 19 17 20 21 20 21 23 24 24 23 24 24 23 23
43 35 46 50 61 65 56 48 33 11 21 11 24 28 28 31 32 31 25 24 26 26 23 22 22 20 20 22 22 19 18 18 21 22 21 24 23 24 24 23 24 24 23 22
38 45 54 59 57 64 71 8 34 28 20 20 19 21 33 37 35 30 30 30 29 26 27 26 24 21 23 21 23 18 20 20 21 24 25 23 21 23 25 25 24 23 22 20
47 44 47 47 52 36 17 18 16 11 11 12 12 21 21 30 33 34 32 32 31 27 28 27 22 24 23 20 19 18 23 23 22 24 24 22 22 22 22 22 23 20 16 12
42 42 45 43 42 24 24 22 17 16 16 15 9 14 18 26 31 32 29 24 20 18 24 25 28 27 26 23 21 20 24 24 24 23 23 22 22 22 21 19 16 13 11 11
50 33 27 42 30 24 14 11 9 8 9 10 15 17 20 25 29 30 25 18 17 13 16 20 16 25 24 24 25 26 27 26 25 23 23 23 22 19 16 12 10 10 9 10
37 31 24 27 13 8 6 11 10 7 6 14 11 18 21 23 27 14 21 12 12 7 13 14 10 19 19 22 26 26 25 25 25 22 19 17 16 11 9 9 8 9 10 12
30 24 22 16 5 4 6 7 10 10 14 16 16 15 18 20 18 9 10 9 9 7 10 7 10 12 16 19 20 20 21 19 18 16 11 8 9 8 8 8 9 10 11 13
21 11 9 5 6 5 7 13 13 14 14 13 13 14 13 13 12 6 6 7 9 8 8 9 13 15 17 17 17 18 15 14 9 11 11 9 9 9 9 10 10 12 14 15
10 6 5 5 7 10 11 12 13 11 19 19 22 21 12 16 8 7 6 8 6 7 8 10 9 11 14 15 14 12 9 9 11 10 9 8 8 9 10 12 14 15 16 17
6 3 6 12 10 9 12 11 15 11 17 20 18 13 7 7 6 7 6 6 5 5 4 7 9 11 10 9 9 9 7 8 9 10 9 9 10 11 12 14 16 17 18 21
9 10 11 12 14 14 12 13 15 15 17 18 8 7 5 7 4 5 6 6 4 5 6 6 7 5 5 6 9 9 10 11 11 11 10 12 12 14 14 17 19 20 21 24